Weather History for Winter Haven, FL

Change the Weather History Date:

Monday, June 24, 2013

  Actual Average Record
Temperature  
Mean Temperature 83 °F -  
Max Temperature 91 °F 91 °F 99 °F (1998)
Min Temperature 75 °F 71 °F 65 °F (1961)
Cooling Degree Days 18    
Growing Degree Days 33 (Base 50)    
Moisture  
Dew Point 71 °F    
Average Humidity 71    
Maximum Humidity 94    
Minimum Humidity 39    
Precipitation  
Precipitation 0.00 in - - ()
Sea Level Pressure  
Sea Level Pressure 30.15 in    
Wind  
Wind Speed 8 mph (East)    
Max Wind Speed 16 mph    
Max Gust Speed 18 mph    
Visibility 10 miles    
Events      
Averages and records for this station are not official NWS values.
T = Trace of Precipitation, MM = Missing Value Source: NWS Daily Summary

Daily Weather History Graph

Daily Weather History Graph

Search for Another Location

Airport:

Trip Planner

Search our weather history database for the weather conditions in past years. The results will help you decide how hot, cold, wet, or windy it might be!

Date:

Astronomy

Jun. 24, 2013 Rise Set
Actual Time 6:31 AM EDT 8:27 PM EDT
Civil Twilight 6:05 AM EDT 8:53 PM EDT
Nautical Twilight 5:32 AM EDT 9:26 PM EDT
Astronomical Twilight 4:58 AM EDT 10:00 PM EDT
Moon 9:39 PM EDT (6/24) 7:49 AM EDT (6/24)
Length of Visible Light 14h 48m
Length of Day
13h 55m
Full, 98% of the Moon is Illuminated
Jun 24
Full
Jun 30
Last Quarter
Jul 8
New
Jul 15
First Quarter
Jul 22
Full

Hourly Weather History & Observations

Time (EDT) Temp. Heat Index Dew Point Humidity Pressure Visibility Wind Dir Wind Speed Gust Speed Precip Events Conditions
12:53 AM 77.0 °F - 73.9 °F 90% 30.16 in 10.0 mi ESE 8.1 mph - N/A   Clear
1:53 AM 77.0 °F - 73.9 °F 90% 30.15 in 10.0 mi ESE 8.1 mph - N/A   Clear
2:53 AM 75.9 °F - 73.9 °F 94% 30.14 in 10.0 mi ESE 8.1 mph - N/A   Clear
3:53 AM 75.9 °F - 73.9 °F 94% 30.14 in 10.0 mi ESE 5.8 mph - N/A   Clear
4:53 AM 75.9 °F - 73.9 °F 94% 30.14 in 10.0 mi ESE 6.9 mph - N/A   Clear
5:53 AM 75.9 °F - 73.9 °F 94% 30.14 in 10.0 mi ESE 4.6 mph - N/A   Clear
6:53 AM 75.0 °F - 73.0 °F 94% 30.16 in 10.0 mi ESE 6.9 mph - N/A   Clear
7:53 AM 78.1 °F - 73.9 °F 87% 30.18 in 10.0 mi East 6.9 mph - N/A   Clear
8:53 AM 80.1 °F 84.2 °F 73.0 °F 79% 30.19 in 10.0 mi ESE 8.1 mph - N/A   Clear
9:53 AM 82.9 °F 88.0 °F 72.0 °F 69% 30.20 in 10.0 mi East 3.5 mph - N/A   Scattered Clouds
10:53 AM 82.9 °F 87.5 °F 71.1 °F 67% 30.21 in 10.0 mi ESE 5.8 mph - N/A   Mostly Cloudy
11:53 AM 84.9 °F 88.8 °F 69.1 °F 59% 30.21 in 10.0 mi Calm Calm - N/A   Scattered Clouds
12:53 PM 89.1 °F 92.9 °F 68.0 °F 50% 30.19 in 10.0 mi East 9.2 mph - N/A   Clear
1:53 PM 90.0 °F 92.8 °F 66.9 °F 46% 30.16 in 10.0 mi East 11.5 mph - N/A   Partly Cloudy
2:53 PM 91.0 °F 93.0 °F 64.9 °F 42% 30.14 in 10.0 mi Variable 6.9 mph 18.4 mph N/A   Clear
3:53 PM 91.9 °F 93.3 °F 64.0 °F 39% 30.12 in 10.0 mi East 11.5 mph - N/A   Clear
4:53 PM 90.0 °F 95.4 °F 70.0 °F 52% 30.11 in 10.0 mi East 15.0 mph - N/A   Partly Cloudy
5:53 PM 89.1 °F 94.1 °F 70.0 °F 53% 30.10 in 10.0 mi East 16.1 mph - N/A   Clear
6:53 PM 87.1 °F 92.0 °F 70.0 °F 57% 30.10 in 10.0 mi East 12.7 mph - N/A   Clear
7:53 PM 84.9 °F 89.4 °F 70.0 °F 61% 30.11 in 10.0 mi ESE 10.4 mph - N/A   Partly Cloudy
8:53 PM 82.9 °F 87.0 °F 70.0 °F 65% 30.12 in 10.0 mi East 10.4 mph - N/A   Clear
9:53 PM 82.0 °F 86.3 °F 71.1 °F 69% 30.14 in 10.0 mi ESE 9.2 mph - N/A   Clear
10:53 PM 80.1 °F 83.8 °F 72.0 °F 76% 30.16 in 10.0 mi East 8.1 mph - N/A   Clear
11:53 PM 79.0 °F - 73.0 °F 82% 30.18 in 10.0 mi East 10.4 mph - N/A   Clear